Preview of NWS' New Version of Forecast
This preview is not operational and should not be used for support decisions.

Regional Weather Roundup (RWR)

Issued by Gray - Portland, ME (GYX)

                            
980 
ASUS41 KGYX 211410
RWRGYX
WEATHER ROUNDUP FOR MAINE AND NEW HAMPSHIRE
NATIONAL WEATHER SERVICE GRAY ME
1000 AM EDT SAT APR 21 2018

MEZ002-005-006-010-012-015-018-020-021-024-026-027-029-211500-
MAINE
  
CITY           SKY/WX    TMP DP  RH WIND       PRES   REMARKS
PORTLAND       PTSUNNY   48  25  40 NW16G24   30.25S                  
SANFORD        FAIR      47  23  38 NW15G23   30.26S                  
BAR HARBOR     FAIR      46  27  47 NW10G21   30.17F                  
WISCASSET      FAIR      47  26  44 VRB7      30.23F                  
ROCKLAND       CLOUDY    45  27  49 VRB6      30.20F                  
FRYEBURG       PTSUNNY   50  23  34 NW8G16    30.24F                  
LEWISTONAUBURN CLOUDY    44  22  41 NW17G24   30.23F                  
AUGUSTA        PTSUNNY   47  24  40 NW14G26   30.21F                  
WATERVILLE     PTSUNNY   46  27  47 NW13G18   30.18F                  
BANGOR         PTSUNNY   44  27  51 NW20G26   30.18S                  
GREENVILLE       N/A     36  26  67 NW10G20   30.12S                  
MILLINOCKET    FAIR      43  22  43 W10G20    30.15F                  
HOULTON        FAIR      41  19  41 NW16G25   30.10F                  
PRESQUE ISLE   FAIR      39  22  50 NW13      30.12F                  
FRENCHVILLE    FAIR      37  19  48 NW21G26   30.10S                  
CARIBOU        FAIR      38  20  48 NW16G24   30.10F                  
$$

NHZ002-005-008-009-011-012-014-211500-
NEW HAMPSHIRE
  
CITY           SKY/WX    TMP DP  RH WIND       PRES   REMARKS
PORTSMOUTH     MOSUNNY   48  22  36 W12G24    30.25F                  
ROCHESTER      FAIR      48  25  40 N10       30.25F                  
NASHUA         FAIR      47  23  38 N12G21    30.30S                  
MANCHESTER     FAIR      50  21  32 NW18G29   30.28S                  
CONCORD        FAIR      48  22  35 NW22G28   30.28F                  
LACONIA        FAIR      44  23  43 VRB7      30.27S                  
PLYMOUTH       FAIR      45  24  42 NW6       30.28R                  
BERLIN         CLOUDY    40  23  50 NW10G20   30.23S                  
WHITEFIELD     CLOUDY    45  24  43 NW15      30.25F                  
JAFFREY        FAIR      45  26  47 VRB6      30.29S                  
KEENE          FAIR      49  25  39 NW8       30.31F                  
LEBANON        FAIR      48  24  39 N9        30.29F                  
MT WASHINGTON  BLWGSNOW  16  16 100 NW56        N/A  VSB 1/16WCI -10  
$$

VTZ005-007-008-211500-
VERMONT
  
CITY           SKY/WX    TMP DP  RH WIND       PRES   REMARKS
ST JOHNSBURY     N/A     44  21  40 MISG      30.26S                  
MONTPELIER     FAIR      40  23  50 NW10G21   30.32S                  
BURLINGTON     FAIR      46  23  40 NW12      30.33S                  
$$

MAZ007-012-024-CTZ003-RIZ002-NYZ038-NYZ072-211500-
SOUTHERN NEW ENGLAND AND NY
  
CITY           SKY/WX    TMP DP  RH WIND       PRES   REMARKS
BOSTON         FAIR      48  23  37 NW12G22   30.30S                  
WORCESTER      FAIR      43  23  45 NW15G22   30.29F                  
NANTUCKET      FAIR      47  30  51 NW15      30.30S                  
PROVIDENCE     FAIR      50  26  39 NW7G18    30.32F                  
HARTFORD       FAIR      49  25  39 W9        30.35F                  
ALBANY         FAIR      47  25  42 NW9       30.38S                  
NEW YORK CITY  FAIR      49  27  42 NW12      30.41S                  
$$

ANZ081-ANZ082-ANZ150-NHZ014-MEZ023>029-211500-
COASTAL MARINE OBSERVATIONS
  
STATION/POSITION TIME  TEMP    WIND        PRES    WAVE
                       AIR SEA DIR/SP/G            HT/PER
                 (UTC) (F)     (DEG/KT/KT) (MB)    (FT/S)
MOUNT DESERT ROC 1400   40     290/ 13/ 15 1022.2S
MATINICUS ROCK   1400   41     290/ 12/ 13 1022.4S
ISLE OF SHOALS   1400   44     330/ 16/ 19 1024.6R
JEFFREYS LEDGE   1336      41                N/A     2/ 4
CASHES LEDGE BUO 1350   43 41              1023.7S   3/ 5
$$

.............KEY..............
   WCI - WIND CHILL
   TC  - TEMPERATURE IN CELSIUS
   VSB - VISIBILITY IN MILES
   HX  - HEAT INDEX
   FAIR- INDICATES FEW OR NO CLOUDS BELOW 12,000 FT, WITH NO 
         SIGNIFICANT WEATHER AND/OR OBSTRUCTIONS TO VISIBILITY.